Regional Weather Roundup
Issued by NWS

Home | Current Version | Previous Version | Graphics & Text | Print | Product List | Glossary On
Versions: 1 2 3 4 5 6 7 8 9 10 11 12 13 14 15 16 17 18 19 20 21 22 23 24 25 26 27 28 29 30 31 32 33 34 35 36 37 38 39 40 41 42 43 44 45 46 47 48 49 50
773
ASUS43 KMKX 210011
RWRWI

WISCONSIN REGIONAL WEATHER ROUNDUP
NATIONAL WEATHER SERVICE MILWAUKEE/SULLIVAN WI
700 PM CDT SUN AUG 20 2017

NOTE: "FAIR" INDICATES FEW OR NO CLOUDS BELOW 12,000 FEET WITH NO
SIGNIFICANT WEATHER AND/OR OBSTRUCTIONS TO VISIBILITY.

WIZ001-002-006>008-014>016-023>028-210100-
NORTHWEST WISCONSIN

CITY           SKY/WX    TMP DP  RH WIND       PRES   REMARKS
SUPERIOR ARPT    N/A     72  59  62 NW6       29.94R
6HR MIN TEMP:  72; 6HR MAX TEMP:  80;

ASHLAND        PTCLDY    76  66  71 W7        29.93R
6HR MIN TEMP:  75; 6HR MAX TEMP:  81;

HAYWARD        PTSUNNY   76  63  64 W3        29.96R
6HR MIN TEMP:  76; 6HR MAX TEMP:  80;

SIREN          MOSUNNY   76  63  63 NW6       29.97R
6HR MIN TEMP:  76; 6HR MAX TEMP:  81;

CUMBERLAND     CLOUDY    73  64  73 CALM      29.97R
RICE LAKE      CLOUDY    77  68  75 NW3       29.97R
6HR MIN TEMP:  77; 6HR MAX TEMP:  81;

CHETEK         CLOUDY    78  72  81 CALM      29.95R HX  80
6HR MIN TEMP:  74; 6HR MAX TEMP:  82;

LADYSMITH      CLOUDY    77  69  74 SW3       29.97S
6HR MIN TEMP:  77; 6HR MAX TEMP:  81;

EAU CLAIRE     CLOUDY    80  68  66 W6        29.94R HX  83
6HR MIN TEMP:  80; 6HR MAX TEMP:  84;

MENOMONIE      PTSUNNY   80  69  68 SW3       29.94S HX  83
6HR MIN TEMP:  80; 6HR MAX TEMP:  85;

NEW RICHMOND   CLOUDY    75  64  67 N6        29.97R
6HR MIN TEMP:  75; 6HR MAX TEMP:  83;

OSCEOLA        CLOUDY    75  64  68 NW3       29.99R
6HR MIN TEMP:  75; 6HR MAX TEMP:  83;

$$

WIZ003>005-009-010-017-018-210100-
NORTH CENTRAL WISCONSIN

CITY           SKY/WX    TMP DP  RH WIND       PRES   REMARKS
MANITOWISH WTR PTCLDY    73  68  83 CALM      29.95R
6HR MIN TEMP:  73; 6HR MAX TEMP:  81;

ARBOR VITAE    CLOUDY    77  70  78 SW3       29.96R
6HR MIN TEMP:  77; 6HR MAX TEMP:  82;

WOODRUFF       CLOUDY    77  70  78 SW3       29.96R
6HR MIN TEMP:  77; 6HR MAX TEMP:  82;

RHINELANDER    CLEAR     76  68  76 W7        29.97S
6HR MIN TEMP:  76; 6HR MAX TEMP:  83;

EAGLE RIVER    CLEAR     74  65  73 SW6       29.95R
6HR MIN TEMP:  74; 6HR MAX TEMP:  81;

LAND O LAKES   CLEAR     76  66  69 W3        29.96R
6HR MIN TEMP:  76; 6HR MAX TEMP:  82;

PHILLIPS       CLOUDY    75  70  83 SW6       29.96R
6HR MIN TEMP:  75; 6HR MAX TEMP:  79;

TOMAHAWK         N/A     75  66  75 CALM      29.97R
6HR MIN TEMP:  74; 6HR MAX TEMP:  81;

MEDFORD        MOCLDY    76  66  71 SW6       29.98R
6HR MIN TEMP:  75; 6HR MAX TEMP:  80;

MERRILL        CLEAR     79  66  65 SW5       29.97R HX  81
$$

WIZ029-030-035-036-043>047-210100-
CENTRAL WISCONSIN

CITY           SKY/WX    TMP DP  RH WIND       PRES   REMARKS
WAUSAU         CLEAR     78  65  63 SW8       29.96R HX  80
6HR MIN TEMP:  77; 6HR MAX TEMP:  82;

MOSINEE        PTCLDY    75  66  73 SW7       29.99R
MARSHFIELD     PTCLDY    78  66  66 SW6       29.97S HX  80
6HR MIN TEMP:  78; 6HR MAX TEMP:  83;

STEVENS POINT  PTCLDY    78  64  63 SW6       29.99R
6HR MIN TEMP:  76; 6HR MAX TEMP:  80;

WAUPACA        MOCLDY    80  67  65 S3        29.98S HX  82
6HR MIN TEMP:  79; 6HR MAX TEMP:  83;

WAUTOMA        CLOUDY    78  69  73 S5        29.99R HX  80
6HR MIN TEMP:  78; 6HR MAX TEMP:  83;

WISC RAPIDS    MOCLDY    78  68  71 S3        29.99S HX  80
6HR MIN TEMP:  77; 6HR MAX TEMP:  83;

CAMP DOUGLAS   CLEAR     80  69  69 S3        29.99R HX  82
6HR MIN TEMP:  77; 6HR MAX TEMP:  82;

$$

WIZ011>013-019>022-031-037>040-048>050-210100-
NORTHEAST WISCONSIN

CITY           SKY/WX    TMP DP  RH WIND       PRES   REMARKS
ANTIGO         CLEAR     76  66  70 SW7       29.98R
6HR MIN TEMP:  76; 6HR MAX TEMP:  80;

SHAWANO        CLEAR     80  68  67 S5        29.95R HX  82
6HR MIN TEMP:  79; 6HR MAX TEMP:  82;

OCONTO         CLEAR     77  68  72 SW6       29.94R
6HR MIN TEMP:  77; 6HR MAX TEMP:  79;

STURGEON BAY   PTCLDY    73  68  84 S10       29.96R
6HR MIN TEMP:  73; 6HR MAX TEMP:  78;

GREEN BAY      CLEAR     77  71  82 S6        29.97R
6HR MIN TEMP:  77; 6HR MAX TEMP:  79;

MANITOWOC      CLOUDY    74  67  78 S7        29.99R
6HR MIN TEMP:  74; 6HR MAX TEMP:  79;

APPLETON       PTCLDY    77  64  65 SW8       29.97R
CLINTONVILLE   PTCLDY    77  64  65 SW6       29.97R
OSHKOSH        CLOUDY    77  68  73 S5        29.98R
6HR MIN TEMP:  77; 6HR MAX TEMP:  81;

$$

WIZ032>034-041-042-053>061-210100-
SOUTHWEST WISCONSIN

CITY           SKY/WX    TMP DP  RH WIND       PRES   REMARKS
LA CROSSE      CLEAR     86  66  51 SW6       29.95S HX  88
6HR MIN TEMP:  81; 6HR MAX TEMP:  89;

SPARTA         CLEAR     79  68  68 SE3       29.98S HX  82
6HR MIN TEMP:  75; 6HR MAX TEMP:  82;

VIROQUA        CLEAR     77  65  64 CALM      30.01S
6HR MIN TEMP:  73; 6HR MAX TEMP:  82;

BOSCOBEL       CLEAR     82  65  56 S3        30.00R HX  84
6HR MIN TEMP:  77; 6HR MAX TEMP:  85;

PRAIRIE DU CHI CLEAR     79  64  61 SE5       29.99S HX  81
6HR MIN TEMP:  76; 6HR MAX TEMP:  83;

PLATTEVILLE    CLOUDY    76  71  84 S3        30.02S
6HR MIN TEMP:  74; 6HR MAX TEMP:  79;

$$

WIZ056-057-062-063-064-067-068-210100-
SOUTH CENTRAL WISCONSIN

CITY           SKY/WX    TMP DP  RH WIND       PRES   REMARKS
REEDSBURG      CLEAR     78  68  72 S3        29.99S HX  80
6HR MIN TEMP:  76; 6HR MAX TEMP:  81;

BARABOO/DELLS  CLEAR     78  65  63 SW3       30.00S HX  80
6HR MIN TEMP:  76; 6HR MAX TEMP:  82;

LONE ROCK      CLEAR     79  70  74 S6        29.99R HX  82
6HR MIN TEMP:  77; 6HR MAX TEMP:  81;

MINERAL POINT  CLEAR     79  70  73 S5        30.03R HX  81
MADISON        MOCLDY    77  66  68 S6        30.01R
6HR MIN TEMP:  77; 6HR MAX TEMP:  79;

MIDDLETON      CLEAR     78  66  66 SE6       30.01S HX  80
6HR MIN TEMP:  78; 6HR MAX TEMP:  82;

WATERTOWN      PTCLDY    77  69  76 CALM      30.01S
6HR MIN TEMP:  77; 6HR MAX TEMP:  79;

MONROE         MOCLDY    73  68  83 CALM      30.03R
JANESVILLE     PTCLDY    81  70  69 CALM      30.01R HX  84
$$

WIZ051-052-058>065-066-070>072-210100-
SOUTHEAST WISCONSIN

CITY           SKY/WX    TMP DP  RH WIND       PRES   REMARKS
MILWAUKEE      CLOUDY    79  66  64 S5        30.01R HX  81
6HR MIN TEMP:  79; 6HR MAX TEMP:  85;

WAUKESHA       CLEAR     75  66  73 SW5       30.03R
MILWAUKEE/TIMM CLEAR     79  64  61 S5        30.02R HX  81
RACINE         CLOUDY    77  67  71 S6        30.02S
6HR MIN TEMP:  77; 6HR MAX TEMP:  81;

KENOSHA        CLOUDY    77  65  66 SE5       30.01S
6HR MIN TEMP:  77; 6HR MAX TEMP:  85;

FOND DU LAC    CLOUDY    77  66  68 S7        30.00R
6HR MIN TEMP:  77; 6HR MAX TEMP:  80;

SHEBOYGAN      MOCLDY    76  71  85 S3        30.00R
6HR MIN TEMP:  75; 6HR MAX TEMP:  82;

WEST BEND      MOCLDY    77  68  73 SW6       30.02R
JUNEAU         PTCLDY    76  68  76 S3        30.03R
6HR MIN TEMP:  76; 6HR MAX TEMP:  78;

$$

LSZ147-162-210100-
LAKE SUPERIOR

STATION/POSITION TIME  TEMP    WIND        PRES    WAVE
                       AIR SEA DIR/SP/G            HT/PER
                 (UTC) (F)     (DEG/KT/KT) (MB)    (FT/S)
W MID LAKE BUOY  2250   64 60  250/ 14/ 16 1010.8R   2/ 4
DEVILS ISLAND    2300   68     250/ 14/ 16 1012.0R
PORT WING        2240   85     260/  9/ 14 1012.5
SAXON HARBOR     2330   74     210/  2/  4 1012.2S
$$

LMZ867-665-643>646-210100-
LAKE MICHIGAN

STATION/POSITION TIME  TEMP    WIND        PRES    WAVE
                       AIR SEA DIR/SP/G            HT/PER
                 (UTC) (F)     (DEG/KT/KT) (MB)    (FT/S)
S GREEN BAY BUOY 0000   75 72  200/ 10/ 12 1013.9
N MID



USA.gov is the U.S. government's official web portal to all federal, state and local government web resources and services.